This demonstration page uses our WeatherBlox Daily Observations layout. Learn more.

38.88101, -77.10428

Hourly Observations for December 23, 2018

Temp ( °F °C ) Dew Point ( °F °C ) Humidity (%) Winds ( mph kmh ) Pressure ( in mb ) Visibility ( mi km ) Precip ( " mm )
12:52 am 00:52 Partly Cloudy 41 5 27 -2.8 57 57 WNW 6 9 30.12 1020 10 16.0934 0 0
1:52 am 01:52 Mostly Clear 41 5 27 -2.8 57 57 W 6 9 30.14 1021 10 16.0934 0 0
2:52 am 02:52 Clear 41 5 27 -2.8 57 57 VRB 3 6 30.14 1021 10 16.0934 0 0
3:52 am 03:52 Clear 40 4.4 27 -2.8 60 60 W 7 11 30.15 1021 10 16.0934 0 0
4:52 am 04:52 Clear 40 4.4 27 -2.8 60 60 WNW 6 9 30.16 1021 10 16.0934 0 0
5:52 am 05:52 Clear 38 3.3 27 -2.8 65 65 W 5 7 30.18 1022 10 16.0934 0 0
6:52 am 06:52 Clear 38 3.3 28 -2.2 68 68 N 10 17 30.19 1022 10 16.0934 0 0
7:52 am 07:52 Sunny 40 4.4 27 -2.8 60 60 NNW 8 13 30.2 1023 10 16.0934 0 0
8:52 am 08:52 Sunny 42 5.6 28 -2.2 58 58 W 5 7 30.22 1024 10 16.0934 0 0
9:52 am 09:52 Sunny 45 7.2 29 -1.7 54 54 WSW 3 6 30.24 1024 10 16.0934 0 0
10:52 am 10:52 Sunny 45 7.2 30 -1.1 56 56 S 6 9 30.22 1023 10 16.0934 0 0
11:52 am 11:52 Sunny 47 8.3 30 -1.1 52 52 SSE 7 11 30.18 1022 10 16.0934 0 0
12:52 pm 12:52 Partly Cloudy 48 8.9 32 0 54 54 S 14 22 30.14 1021 10 16.0934 0 0
1:52 pm 13:52 Partly Cloudy 48 8.9 31 -0.6 52 52 S 8 13 30.13 1020 10 16.0934 0 0
2:52 pm 14:52 Mostly Cloudy 49 9.4 30 -1.1 48 48 SSW 5 7 30.11 1020 10 16.0934 0 0
3:52 pm 15:52 Mostly Cloudy 48 8.9 32 0 54 54 S 7 11 30.09 1019 10 16.0934 0 0
4:52 pm 16:52 Mostly Cloudy 47 8.3 32 0 56 56 S 7 11 30.09 1019 10 16.0934 0 0
5:52 pm 17:52 Cloudy 46 7.8 34 1.1 63 63 SSE 6 9 30.09 1019 10 16.0934 0 0
6:52 pm 18:52 Cloudy 47 8.3 31 -0.6 54 54 SSW 5 7 30.11 1020 10 16.0934 0 0
7:52 pm 19:52 Cloudy 46 7.8 34 1.1 63 63 S 6 9 30.11 1020 10 16.0934 0 0
8:52 pm 20:52 Cloudy with Light Rain 45 7.2 34 1.1 66 66 S 3 6 30.1 1019 10 16.0934 0 0.0254
9:52 pm 21:52 Cloudy with Light Rain 45 7.2 35 1.7 68 68 Calm 30.09 1019 10 16.0934 0.02 0.508
10:52 pm 22:52 Cloudy 44 6.7 37 2.8 76 76 Calm 30.07 1018 10 16.0934 0 0.0254
11:52 pm 23:52 Cloudy with Light Rain 44 6.7 38 3.3 79 79 ENE 3 6 30.05 1018 10 16.0934 0 0.0254

Powered by AerisWeather